Bergplaas, South Africa

1:46 AM SAST on January 22, 2017 (GMT +0200)
George

Weather History for FAGG - July, 2013

Change the Weather History Date:

Friday, July 5, 2013

  Actual Average Record
Temperature  
Mean Temperature 60 °F -  
Max Temperature 70 °F 64 °F 86 °F (1999)
Min Temperature 49 °F 44 °F 36 °F (2012)
Degree Days  
Heating Degree Days 6    
Growing Degree Days 10 (Base 50)    
Moisture  
Dew Point 49 °F    
Average Humidity 72    
Maximum Humidity 88    
Minimum Humidity 37    
Precipitation  
Precipitation 0.00 in - - ()
Sea Level Pressure  
Sea Level Pressure 29.98 in    
Wind  
Wind Speed 5 mph ()    
Max Wind Speed 12 mph    
Max Gust Speed -    
Visibility 8.5 miles    
Events      
Averages and records for this station are not official NWS values.
T = Trace of Precipitation, MM = Missing Value Source: Averaged Metar Reports

Daily Weather History Graph

Daily Weather History Graph

Search for Another Location

Airport or City:

Trip Planner

Search our weather history database for the weather conditions in past years. The results will help you decide how hot, cold, wet, or windy it might be!

Date:

Astronomy

Jul. 05, 2013 Rise Set
Actual Time 7:36 AM SAST 5:34 PM SAST
Civil Twilight 7:08 AM SAST 6:01 PM SAST
Nautical Twilight 6:37 AM SAST 6:32 PM SAST
Astronomical Twilight 6:07 AM SAST 7:03 PM SAST
Moon 5:03 AM SAST (7/5) 3:29 PM SAST (7/5)
Length of Visible Light 10h 52m
Length of Day
9h 57m
Waning Crescent, 7% of the Moon is Illuminated
Jul 5
Waning Crescent
Jul 8
New
Jul 16
First Quarter
Jul 22
Full
Jul 29
Last Quarter

Hourly Weather History & Observations

Time (SAST) Temp. Dew Point Humidity Pressure Visibility Wind Dir Wind Speed Gust Speed Precip Events Conditions
12:00 AM 53.6 °F 48.2 °F 82% 30.09 in - East 4.6 mph - N/A   Clear
1:00 AM 51.8 °F 48.2 °F 88% 30.09 in - NNE 3.5 mph - N/A   Clear
2:00 AM 50 °F 46 °F 82% 30.09 in 12 mi NNW 3.5 mph - -  
2:00 AM 50.0 °F 46.4 °F 87% 30.06 in - NNW 4.6 mph - N/A   Clear
3:00 AM 50.0 °F 46.4 °F 87% 30.06 in - NE 4.6 mph - N/A   Clear
4:00 AM 51.8 °F 48.2 °F 88% 30.04 in - ENE 8.1 mph - N/A   Clear
5:00 AM 51 °F 47 °F 83% 30.02 in 12 mi NNE 5.8 mph - -   Scattered Clouds
5:00 AM 51.8 °F 48.2 °F 88% 30.01 in 6.2 mi NNE 5.8 mph - N/A   Partly Cloudy
6:00 AM 51.8 °F 48.2 °F 88% 30.01 in 6.2 mi ENE 10.4 mph - N/A   Partly Cloudy
7:00 AM 53.6 °F 46.4 °F 77% 29.98 in - ENE 9.2 mph - N/A   Clear
8:00 AM 53 °F 48 °F 78% 30.00 in 12 mi NNE 8.1 mph - -   Scattered Clouds
8:00 AM 53.6 °F 48.2 °F 82% 29.98 in 6.2 mi NNE 8.1 mph - N/A   Partly Cloudy
9:00 AM 62.6 °F 50.0 °F 63% 29.98 in 6.2 mi North 9.2 mph - N/A   Partly Cloudy
10:00 AM 59.0 °F 50.0 °F 72% 30.01 in - SW 8.1 mph - N/A   Clear
11:00 AM 60 °F 51 °F 64% 30.01 in 12 mi WSW 5.8 mph - -   Mostly Cloudy
11:00 AM 59.0 °F 50.0 °F 72% 30.01 in - Variable 5.8 mph - N/A   Clear
12:00 PM 60.8 °F 50.0 °F 68% 29.98 in 6.2 mi Variable 2.3 mph - N/A   Partly Cloudy
1:00 PM 66.2 °F 53.6 °F 64% 29.92 in 6.2 mi ENE 6.9 mph - N/A   Partly Cloudy
2:00 PM 68 °F 48 °F 37% 29.88 in 12 mi North 11.5 mph - -   Scattered Clouds
2:00 PM 68.0 °F 48.2 °F 49% 29.89 in 6.2 mi NNW 8.1 mph - N/A   Partly Cloudy
3:00 PM 69.8 °F 50.0 °F 49% 29.89 in 6.2 mi NW 5.8 mph - N/A   Partly Cloudy
4:00 PM 68.0 °F 50.0 °F 52% 29.92 in 6.2 mi SW 5.8 mph - N/A   Partly Cloudy
5:00 PM 65 °F 53 °F 55% 29.92 in 12 mi South 3.5 mph - -   Scattered Clouds
5:00 PM 66.2 °F 51.8 °F 60% 29.92 in 6.2 mi South 3.5 mph - N/A   Partly Cloudy
6:00 PM 59.0 °F 51.8 °F 77% 29.92 in 6.2 mi ENE 6.9 mph - N/A   Partly Cloudy
7:00 PM 57.2 °F 50.0 °F 77% 29.92 in - Variable 2.3 mph - N/A   Clear
8:00 PM 56 °F 47 °F 65% 29.95 in 12 mi NNW 3.5 mph - -  
8:00 PM 55.4 °F 48.2 °F 77% 29.95 in - NNW 3.5 mph - N/A   Clear
9:00 PM 55.4 °F 48.2 °F 77% 29.95 in - NNW 4.6 mph - N/A   Clear
10:00 PM 57.2 °F 48.2 °F 72% 29.95 in - NNE 4.6 mph - N/A   Clear
11:00 PM 53.6 °F 46.4 °F 77% 29.95 in - North 4.6 mph - N/A   Clear